Regional Weather Roundup
Issued by NWS

Home | Current Version | Previous Version | Text Only | Print | Product List | Glossary Off
Versions: 1 2 3 4 5 6 7 8 9 10 11 12 13 14 15 16 17 18 19 20 21 22 23 24 25 26 27 28 29 30 31 32 33 34 35 36 37 38 39 40 41 42 43 44 45 46 47 48 49 50

000
ASUS45 KCYS 280410
RWRWY

WYOMING REGIONAL WEATHER ROUNDUP
NATIONAL WEATHER SERVICE CHEYENNE WY
900 PM MST THU NOV 27 2014

NOTE:  "FAIR" INDICATES FEW OR NO CLOUDS BELOW 12,000 FEET
WITH NO SIGNIFICANT WEATHER AND/OR OBSTRUCTIONS TO VISIBILITY.

WYZ001-280500-
YELLOWSTONE NATIONAL PARK

CITY           SKY/WX    TMP DP  RH WIND       PRES   REMARKS
LK YELLOWSTONE   N/A     36  26  67 VRB3      30.11F
W YELLOWSTONE  NOT AVBL

$$
WYZ002>013-054>058-071-098>099-280500-
NORTHERN WYOMING

CITY           SKY/WX    TMP DP  RH WIND       PRES   REMARKS
JACKSON        CLOUDY    39  28  65 W6        30.12F WCI  35
CODY           PTCLDY    54  27  35 W18G28    29.91S
GREYBULL       MOCLDY    22  22 100 CALM      29.92F
WORLAND        PTCLDY    26  24  92 SW5       29.91F WCI  20
SHERIDAN       CLOUDY    44  28  53 VRB5      29.82F
BUFFALO        CLOUDY    44  24  45 CALM      29.87F
GILLETTE       PTCLDY    46  29  51 SW15      29.87F
HULETT           N/A    N/A N/A N/A MISG        N/A
NEWCASTLE      FAIR      32  27  80 CALM      29.94S

$$
WYZ014>020-022>026-101>103-280500-
CENTRAL WYOMING

CITY           SKY/WX    TMP DP  RH WIND       PRES   REMARKS
BIG PINEY      CLEAR    N/A N/A N/A E5        30.18F
PINEDALE       MOCLDY    21  19  93 NW5       30.19F WCI  15
DUBOIS         FAIR      39  23  52 NW17G26   30.08F WCI  30
LANDER         PTCLDY    42  25  50 W12       30.01R
RIVERTON       PTCLDY    41  26  55 E7        30.01F
CASPER         CLOUDY    45  26  47 SW16      30.01F
DOUGLAS        PTCLDY    47  25  42 CALM      29.99F

$$
WYZ021-027>030-104>119-280500-
SOUTHERN WYOMING

CITY           SKY/WX    TMP DP  RH WIND       PRES   REMARKS
EVANSTON       MOCLDY    41  20  43 SW12      30.22F
FORT BRIDGER   FAIR      46  22  39 SW18G24   30.21F
ROCK SPRINGS   CLEAR     41  21  44 SW18      30.17F
DIXON          FAIR      39  26  59 NW6       30.25S
RAWLINS        PTCLDY    42  20  41 SW15      30.18S
SARATOGA       MOCLDY    36  21  55 S8        30.22S WCI  29
LARAMIE        PTCLDY    43  20  39 SW23G32   30.17F
CHEYENNE       CLEAR     49  20  31 W31G39    30.06F
TORRINGTON     PTCLDY    52  25  35 W21G31    29.96F
PINE BLUFFS    FAIR      46  23  39 W17       30.02F

$$



USA.gov is the U.S. government's official web portal to all federal, state and local government web resources and services.